Shawano, WI

3:26 AM CST on January 21, 2018 (GMT -0600)
Shawano

Weather History for KEZS - October, 2012

Change the Weather History Date:

Sunday, October 14, 2012

  Actual Average (KCLI) Record (KCLI)
Temperature  
Mean Temperature 47 °F -  
Max Temperature 50 °F 59 °F 84 °F (1975)
Min Temperature 44 °F 35 °F 20 °F (1979)
Degree Days  
Heating Degree Days 18    
Moisture  
Dew Point 45 °F    
Average Humidity 93    
Maximum Humidity 100    
Minimum Humidity 87    
Precipitation  
Precipitation 1.14 in - - ()
Sea Level Pressure  
Sea Level Pressure 29.64 in    
Wind  
Wind Speed 8 mph (North)    
Max Wind Speed 18 mph    
Max Gust Speed 25 mph    
Visibility 8 miles    
Events Rain    
Averages and records for this station are not official NWS values.
T = Trace of Precipitation, MM = Missing Value Source: NWS Daily Summary

Daily Weather History Graph

Daily Weather History Graph

Search for Another Location

Airport or City:

Trip Planner

Search our weather history database for the weather conditions in past years. The results will help you decide how hot, cold, wet, or windy it might be!

Date:

Astronomy

Oct. 14, 2012 Rise Set
Actual Time 7:09 AM CDT 6:10 PM CDT
Civil Twilight 6:39 AM CDT 6:39 PM CDT
Nautical Twilight 6:05 AM CDT 7:13 PM CDT
Astronomical Twilight 5:31 AM CDT 7:47 PM CDT
Moon 6:07 AM CDT (10/14) 5:29 PM CDT (10/14)
Length of Visible Light 12h 00m
Length of Day
11h 01m
Waning Crescent, 1% of the Moon is Illuminated
Oct 14
Waning Crescent
Oct 15
New
Oct 21
First Quarter
Oct 29
Full
Nov 6
Last Quarter

Hourly Weather History & Observations

Time (CDT) Temp. Windchill Dew Point Humidity Pressure Visibility Wind Dir Wind Speed Gust Speed Precip Events Conditions
12:15 AM 50.0 °F - 46.4 °F 87% 29.76 in 7.0 mi Calm Calm - N/A   Overcast
12:35 AM 50.0 °F - 46.4 °F 87% 29.76 in 10.0 mi East 3.5 mph - N/A   Overcast
12:55 AM 50.0 °F - 46.4 °F 87% 29.75 in 7.0 mi NE 4.6 mph - N/A   Overcast
1:15 AM 50.0 °F - 46.4 °F 87% 29.75 in 5.0 mi NNE 6.9 mph - N/A   Overcast
1:35 AM 48.2 °F - 46.4 °F 93% 29.75 in 3.0 mi NNE 8.1 mph - N/A   Light Drizzle
1:55 AM 48.2 °F - 46.4 °F 93% 29.74 in 5.0 mi ENE 6.9 mph - N/A   Overcast
2:35 AM 48.2 °F - 46.4 °F 93% 29.74 in 10.0 mi ENE 8.1 mph - N/A   Overcast
2:55 AM 48.2 °F - 46.4 °F 93% 29.74 in 10.0 mi ENE 8.1 mph - N/A   Overcast
3:15 AM 48.2 °F - 46.4 °F 93% 29.73 in 10.0 mi ENE 9.2 mph - N/A   Overcast
3:35 AM 48.2 °F - 46.4 °F 93% 29.73 in 10.0 mi ENE 9.2 mph - N/A   Overcast
3:55 AM 48.2 °F - 46.4 °F 93% 29.72 in 10.0 mi NE 8.1 mph - N/A   Overcast
4:15 AM 48.2 °F - 46.4 °F 93% 29.72 in 10.0 mi NE 10.4 mph - N/A   Overcast
4:35 AM 48.2 °F - 46.4 °F 93% 29.70 in 5.0 mi NE 10.4 mph - N/A Rain Rain
4:55 AM 46.4 °F 41.5 °F 46.4 °F 100% 29.69 in 7.0 mi NE 10.4 mph 17.3 mph N/A Rain Light Rain
5:15 AM 46.4 °F 41.5 °F 46.4 °F 100% 29.70 in 10.0 mi ENE 10.4 mph - N/A   Overcast
5:35 AM 46.4 °F 41.5 °F 44.6 °F 93% 29.70 in 10.0 mi NE 10.4 mph - N/A   Overcast
5:55 AM 46.4 °F 41.5 °F 44.6 °F 93% 29.69 in 4.0 mi ENE 10.4 mph - N/A Rain Light Rain
6:15 AM 46.4 °F 41.1 °F 46.4 °F 100% 29.68 in 5.0 mi NE 11.5 mph 16.1 mph N/A   Overcast
6:35 AM 46.4 °F 41.1 °F 46.4 °F 100% 29.67 in 4.0 mi NE 11.5 mph 17.3 mph N/A Rain Light Rain
6:55 AM 46.4 °F 44.3 °F 46.4 °F 100% 29.69 in 3.0 mi NE 4.6 mph - 0.04 in Rain Rain
7:15 AM 46.4 °F 41.9 °F 46.4 °F 100% 29.67 in 3.0 mi NE 9.2 mph - 0.10 in Rain Rain
7:35 AM 46.4 °F 40.7 °F 46.4 °F 100% 29.65 in 4.0 mi NNE 12.7 mph - 0.16 in Rain Rain
7:55 AM 46.4 °F 40.7 °F 46.4 °F 100% 29.64 in 7.0 mi NNE 12.7 mph - 0.20 in Rain Rain
8:15 AM 46.4 °F 40.7 °F 44.6 °F 93% 29.64 in 10.0 mi NE 12.7 mph - 0.04 in Rain Rain
8:35 AM 46.4 °F 40.4 °F 44.6 °F 93% 29.64 in 10.0 mi NE 13.8 mph - 0.06 in Rain Light Rain
8:55 AM 46.4 °F 39.8 °F 44.6 °F 93% 29.62 in 10.0 mi NE 16.1 mph 20.7 mph 0.08 in Rain Light Rain
9:15 AM 46.4 °F 39.5 °F 44.6 °F 93% 29.61 in 10.0 mi NE 17.3 mph - 0.02 in Rain Light Rain
9:35 AM 46.4 °F 39.2 °F 44.6 °F 93% 29.61 in 10.0 mi NNE 18.4 mph 24.2 mph 0.02 in Rain Light Rain
9:55 AM 46.4 °F 39.8 °F 44.6 °F 93% 29.60 in 7.0 mi NNE 16.1 mph 19.6 mph 0.06 in Rain Rain
10:15 AM 46.4 °F 39.2 °F 44.6 °F 93% 29.59 in 7.0 mi NNE 18.4 mph - 0.02 in Rain Light Rain
10:35 AM 46.4 °F 39.2 °F 44.6 °F 93% 29.57 in 7.0 mi NNE 18.4 mph 23.0 mph 0.06 in Rain Rain
10:55 AM 46.4 °F 39.8 °F 44.6 °F 93% 29.57 in 5.0 mi NNE 16.1 mph 23.0 mph 0.12 in Rain Rain
11:15 AM 46.4 °F 39.8 °F 44.6 °F 93% 29.57 in 7.0 mi NNE 16.1 mph 23.0 mph 0.04 in Rain Rain
11:35 AM 46.4 °F 39.8 °F 44.6 °F 93% 29.56 in 7.0 mi NNE 16.1 mph 25.3 mph 0.08 in Rain Rain
11:55 AM 46.4 °F 39.5 °F 44.6 °F 93% 29.55 in 10.0 mi NNE 17.3 mph 23.0 mph 0.08 in Rain Light Rain
12:15 PM 46.4 °F 40.4 °F 44.6 °F 93% 29.55 in 10.0 mi NNE 13.8 mph 19.6 mph N/A   Light Drizzle
12:35 PM 46.4 °F 42.4 °F 44.6 °F 93% 29.55 in 10.0 mi North 8.1 mph 17.3 mph N/A Rain Light Rain
12:55 PM 46.4 °F 41.9 °F 44.6 °F 93% 29.55 in 10.0 mi North 9.2 mph - 0.02 in Rain Light Rain
1:15 PM 46.4 °F 42.9 °F 44.6 °F 93% 29.55 in 7.0 mi North 6.9 mph - 0.02 in Rain Rain
1:35 PM 46.4 °F 42.4 °F 44.6 °F 93% 29.55 in 7.0 mi North 8.1 mph - 0.06 in Rain Rain
1:55 PM 46.4 °F 42.9 °F 44.6 °F 93% 29.54 in 5.0 mi NNW 6.9 mph - 0.10 in Rain Rain
2:15 PM 46.4 °F 43.5 °F 44.6 °F 93% 29.54 in 5.0 mi NNW 5.8 mph - 0.06 in Rain Rain
2:35 PM 46.4 °F 43.5 °F 44.6 °F 93% 29.54 in 7.0 mi NW 5.8 mph - 0.10 in Rain Rain
2:55 PM 46.4 °F 42.9 °F 44.6 °F 93% 29.54 in 10.0 mi NW 6.9 mph - 0.16 in Rain Rain
3:15 PM 46.4 °F 42.4 °F 44.6 °F 93% 29.54 in 5.0 mi NW 8.1 mph - 0.04 in Rain Rain
3:35 PM 46.4 °F 42.4 °F 44.6 °F 93% 29.54 in 5.0 mi NW 8.1 mph - 0.08 in Rain Rain
3:55 PM 46.4 °F 41.9 °F 44.6 °F 93% 29.54 in 7.0 mi NW 9.2 mph 16.1 mph 0.12 in Rain Rain
4:15 PM 46.4 °F 42.4 °F 44.6 °F 93% 29.55 in 7.0 mi NW 8.1 mph - 0.02 in Rain Light Rain
4:35 PM 46.4 °F 41.5 °F 44.6 °F 93% 29.55 in 7.0 mi NW 10.4 mph - 0.06 in Rain Light Rain
4:55 PM 46.4 °F 42.9 °F 44.6 °F 93% 29.56 in 7.0 mi NW 6.9 mph - 0.08 in Rain Rain
5:15 PM 46.4 °F 41.1 °F 44.6 °F 93% 29.56 in 7.0 mi NW 11.5 mph - 0.02 in Rain Rain
5:35 PM 48.2 °F - 44.6 °F 87% 29.57 in 7.0 mi NW 9.2 mph - 0.04 in Rain Light Rain
5:55 PM 48.2 °F - 46.4 °F 93% 29.59 in 10.0 mi NW 6.9 mph - 0.06 in Rain Rain
6:15 PM 48.2 °F - 46.4 °F 93% 29.59 in 7.0 mi NW 8.1 mph - N/A Rain Rain
6:35 PM 48.2 °F - 46.4 °F 93% 29.61 in 10.0 mi NW 6.9 mph - 0.02 in   Drizzle
6:55 PM 48.2 °F - 44.6 °F 87% 29.61 in 10.0 mi NNW 9.2 mph - 0.02 in   Drizzle
7:15 PM 48.2 °F - 44.6 °F 87% 29.63 in 10.0 mi NNW 10.4 mph - N/A   Drizzle
7:35 PM 48.2 °F - 44.6 °F 87% 29.64 in 10.0 mi NNW 5.8 mph - N/A Rain Light Rain
7:55 PM 46.4 °F 42.4 °F 44.6 °F 93% 29.64 in 10.0 mi NW 8.1 mph - N/A   Drizzle
8:15 PM 46.4 °F 41.9 °F 44.6 °F 93% 29.66 in 10.0 mi NW 9.2 mph - N/A   Drizzle
8:35 PM 46.4 °F 42.4 °F 44.6 °F 93% 29.66 in 10.0 mi NW 8.1 mph - N/A   Drizzle
8:55 PM 46.4 °F 42.9 °F 44.6 °F 93% 29.67 in 10.0 mi NW 6.9 mph - N/A   Drizzle
9:15 PM 46.4 °F 42.9 °F 44.6 °F 93% 29.68 in 10.0 mi WNW 6.9 mph - N/A   Light Drizzle
9:35 PM 46.4 °F 42.9 °F 44.6 °F 93% 29.69 in 10.0 mi WNW 6.9 mph - N/A   Light Drizzle
9:55 PM 46.4 °F 41.9 °F 42.8 °F 87% 29.69 in 10.0 mi NW 9.2 mph - N/A   Light Drizzle
10:15 PM 46.4 °F 42.4 °F 42.8 °F 87% 29.70 in 10.0 mi NW 8.1 mph - N/A   Light Drizzle
10:35 PM 46.4 °F 42.4 °F 42.8 °F 87% 29.70 in 10.0 mi NW 8.1 mph - N/A   Overcast
10:55 PM 44.6 °F 40.2 °F 42.8 °F 93% 29.71 in 10.0 mi NW 8.1 mph - N/A   Overcast
11:15 PM 44.6 °F 40.2 °F 41.0 °F 87% 29.70 in 10.0 mi NNW 8.1 mph - N/A   Overcast
11:35 PM 44.6 °F 40.7 °F 41.0 °F 87% 29.71 in 10.0 mi WNW 6.9 mph - N/A   Mostly Cloudy
11:55 PM 44.6 °F 40.2 °F 41.0 °F 87% 29.71 in 10.0 mi NW 8.1 mph - N/A   Overcast